Location: Canyam�s
(41.5996°N, 2.4450°E)
Time: 20:47:31
(UTC+00:00)

ATLAS CENTAUR R/B - Pass Details

Date: 07 October 2020
Orbit: 479 x 667 km, 64.7° (Epoch: 12 October)

Event Time Altitude Azimuth Distance (km) Brightness Sun altitude
Rises 20:20:56 0° 323° (NW) 2,544 5.5 -33.7°
Reaches altitude 10° 20:23:04 10° 319° (NW) 1,669 4.5 -34.0°
Enters shadow 20:23:09 11° 319° (NW) 1,638 4.4 -34.0°
